This is the latest recevied weather packets stored in our database for station/object KC3UTO. If no packets are shown the sender has not sent any weather packets the latest 10 day(s).
| Time | Temp. | Humidity | Pressure | Rain* | Wind** | Luminosity | Snow |
|---|---|---|---|---|---|---|---|
| 1777061187 | 23.89° C | 27% | 1007.2 hPa | 0 mm | - | 249 W/m² | - |
| 1777060887 | 23.89° C | 28% | 1007.1 hPa | 0 mm | - | 280 W/m² | - |
| 1777060587 | 23.33° C | 29% | 1007.1 hPa | 0 mm | - | 251 W/m² | - |
| 1777060284 | 23.33° C | 31% | 1007.2 hPa | 0 mm | - | 231 W/m² | - |
| 1777059979 | 23.33° C | 28% | 1007.1 hPa | 0 mm | - | 285 W/m² | - |
| 1777059675 | 23.33° C | 28% | 1007.1 hPa | 0 mm | - | 208 W/m² | - |
| 1777059373 | 23.33° C | 28% | 1007.1 hPa | 0 mm | - | 281 W/m² | - |
| 1777059069 | 23.33° C | 30% | 1007.1 hPa | 0 mm | - | 307 W/m² | - |
| 1777058769 | 22.78° C | 29% | 1007.1 hPa | 0 mm | - | 291 W/m² | - |
| 1777058465 | 22.78° C | 29% | 1007.1 hPa | 0 mm | - | 262 W/m² | - |
| 1777058162 | 22.78° C | 30% | 1007 hPa | 0 mm | - | 245 W/m² | - |
| 1777057862 | 22.78° C | 28% | 1007.2 hPa | 0 mm | - | 231 W/m² | - |
| 1777057557 | 22.78° C | 29% | 1007.6 hPa | 0 mm | - | 257 W/m² | - |
| 1777057254 | 22.22° C | 30% | 1007.4 hPa | 0 mm | - | 307 W/m² | - |
| 1777056949 | 22.22° C | 31% | 1007.6 hPa | 0 mm | - | 303 W/m² | - |
| 1777056648 | 22.78° C | 28% | 1007.5 hPa | 0 mm | - | 266 W/m² | - |
| 1777056344 | 22.78° C | 27% | 1007.5 hPa | 0 mm | - | 263 W/m² | - |
| 1777056041 | 23.33° C | 28% | 1007.6 hPa | 0 mm | - | 315 W/m² | - |
| 1777055737 | 22.78° C | 29% | 1007.7 hPa | 0 mm | - | 392 W/m² | - |
| 1777055433 | 23.33° C | 28% | 1007.5 hPa | 0 mm | - | 864 W/m² | - |
| 1777055127 | 23.33° C | 27% | 1007.7 hPa | 0 mm | - | 705 W/m² | - |
| 1777054822 | 23.33° C | 28% | 1007.4 hPa | 0 mm | - | 755 W/m² | - |
| 1777054519 | 23.89° C | 28% | 1007.5 hPa | 0 mm | - | 873 W/m² | - |
| 1777054216 | 23.33° C | 32% | 1007.7 hPa | 0 mm | - | 864 W/m² | - |
| 1777053914 | 22.22° C | 29% | 1007.8 hPa | 0 mm | - | 845 W/m² | - |
* Rain latest hour (hover to see other rain measurements)
** Current wind speed in m/s (hover to see current wind gust speed)